Location: Archemont
(49.1579°N, 1.7598°E)
Time: 09:57:01
(UTC+00:00)

deb Explorer IX - Pass Details

Date: 13 April 2024
Orbit: 513 x 891 km, 38.7° (Epoch: 23 May)

Event Time Altitude Azimuth Distance (km) Brightness Sun altitude
Rises 17:16:17 0° 260° (W) 3,446 ? 13.2°
Reaches altitude 10° 17:19:21 10° 247° (WSW) 2,456 ? 12.7°
Maximum altitude 17:23:55 24° 196° (SSW) 1,599 ? 11.9°
Drops below altitude 10° 17:28:08 10° 143° (SE) 2,256 ? 11.2°
Sets 17:30:51 0° 130° (SE) 3,103 ? 10.8°
